Location: Newark
(40.9833°N, 0.0333°W)
Time: 12:39:05
(UTC+00:00)

deb Explorer IX - Visible Passes

Search period start: 30 October 2020 00:00
Search period end: 09 November 2020 00:00
Orbit: 537 x 1106 km, 38.8° (Epoch: 30 October)

Date Brightness Start Highest point End Pass type
(mag) Time Alt. Az. Time Alt. Az. Time Alt. Az.
30 Oct ? 02:47:43 11° ESE 02:47:43 11° ESE 02:48:03 10° ESE visible
30 Oct ? 04:29:01 26° SSW 04:31:40 41° SSE 04:37:44 10° E visible
31 Oct ? 04:07:24 37° S 04:08:25 40° SSE 04:14:19 10° E visible
31 Oct ? 05:49:18 10° WSW 05:55:13 72° S 06:02:05 10° E visible
01 Nov ? 03:45:42 39° SE 03:45:42 39° SE 03:50:55 10° E visible
01 Nov ? 05:27:00 15° WSW 05:31:57 71° S 05:38:39 10° E visible
02 Nov ? 03:23:56 30° ESE 03:23:56 30° ESE 03:27:30 10° E visible
02 Nov ? 05:05:14 25° WSW 05:08:41 71° S 05:15:14 10° E visible
03 Nov ? 03:02:08 20° E 03:02:08 20° E 03:04:06 10° E visible
03 Nov ? 04:43:26 41° WSW 04:45:26 71° S 04:51:49 10° E visible
04 Nov ? 02:40:18 12° E 02:40:18 12° E 02:40:44 10° E visible
04 Nov ? 04:21:35 64° SW 04:22:12 70° S 04:28:24 10° E visible
04 Nov ? 06:03:31 10° W 06:09:14 64° SSW 06:15:53 10° ESE visible
05 Nov ? 03:59:44 61° SE 03:59:44 61° SE 04:05:00 10° E visible
05 Nov ? 05:41:02 13° W 05:45:57 63° SSW 05:52:28 10° ESE visible
06 Nov ? 03:37:52 38° ESE 03:37:52 38° ESE 03:41:36 10° E visible
06 Nov ? 05:19:10 22° W 05:22:42 62° SSW 05:29:01 10° ESE visible
07 Nov ? 03:16:00 23° E 03:16:00 23° E 03:18:13 10° E visible
07 Nov ? 04:57:19 35° WSW 04:59:29 61° S 05:05:36 10° ESE visible
08 Nov ? 02:54:10 13° E 02:54:10 13° E 02:54:51 10° E visible
08 Nov ? 04:35:28 54° SW 04:36:15 60° SSW 04:42:12 10° ESE visible
